Satellite-Ground Cal/Val Site Overpasses Predictions

Prediction of Satellite NPP Overpassing Cal/Val Site: Antarctic Dome C

Ground Cal/Val Site Location: Latitude: -75.10, Longitude: 123.35; Satellite-Ground Site NADIR distance within 100 km.

Table of predicted overpasses for the next 14.0 days since TLE Epoch: 3/23/2017
Interval Starting Time Ending Time Minimum Distance Time Minimum Distance (km)
1 03/24/2017 14:42:04 03/24/2017 14:42:29 03/24/2017 14:42:17 52.27
2 03/25/2017 07:43:44 03/25/2017 07:44:05 03/25/2017 07:43:54 69.54
3 03/26/2017 07:24:51 03/26/2017 07:25:18 03/26/2017 07:25:04 38.63
4 03/28/2017 15:07:15 03/28/2017 15:07:24 03/28/2017 15:07:19 94.23
5 03/29/2017 14:48:14 03/29/2017 14:48:42 03/29/2017 14:48:28 16.98
6 03/31/2017 07:31:02 03/31/2017 07:31:32 03/31/2017 07:31:17 2.22
7 04/03/2017 14:54:26 04/03/2017 14:54:55 04/03/2017 14:54:40 19.17
8 04/04/2017 14:35:44 04/04/2017 14:35:58 04/04/2017 14:35:51 87.95
9 04/05/2017 07:37:14 04/05/2017 07:37:42 04/05/2017 07:37:28 33.43


NCC Satellite Cal/Val Overpasses Prediction Service
